[[{"header":{"parameterUnit":"m.s-1","parameterCategory":1,"la1":30.2992,"la2":30.254,"lo1":-89.0895,"lo2":-89.0443,"dy":0.0025,"dx":0.0025,"nx":19,"ny":19,"refTime":"2026-04-28T09:00:00:Z","depth":0,"parameterNumber":2,"parameterNumberName":"U-component_of_WINDS"},"data":[0,0,0,0.3509,0.3509,0.348,0.348,0.3454,0.3454,0,0,0,0,0,0,0,0,0,0,0,0.3525,0.3525,0.3509,0.3509,0.348,0.348,0.3454,0.3454,0,0,0,0,0,0,0,0,0,0,0,0.3525,0.3525,0.3525,0.3509,0.348,0.348,0.3454,0.3472,0,0,0,0,0,0,0,0,0,0,0.3498,0.352,0.3525,0.3525,0.3509,0.348,0.348,0.3473,0.3471,0.3473,0,0.3477,0,0.3465,0.3453,0.3453,0,0,0,0.3503,0.3522,0.3507,0.3526,0.3508,0.348,0.3491,0.3472,0.347,0.347,0.3476,0.3475,0.3465,0.3453,0.3453,0.3483,0.3483,0,0,0.3505,0.3524,0.3509,0.3506,0.3512,0.3492,0.3491,0.347,0.3478,0.3476,0.3474,0.3464,0.3453,0.3453,0.3482,0.3483,0,0,0,0.3513,0.3526,0.3511,0.3508,0.3502,0.3492,0.349,0.3478,0.3472,0.3474,0.3464,0.3453,0.3453,0.3482,0.3482,0.3521,0,0,0,0.3514,0.353,0.3512,0.3524,0.3502,0.349,0.3499,0.3474,0.3471,0.3464,0.3453,0.3453,0.3481,0.3482,0.3519,0.3536,0,0,0,0.3525,0.3532,0.353,0.3525,0.3513,0.349,0.3482,0.3472,0.3465,0.3453,0.3453,0.3481,0.3482,0.3517,0.3533,0.3549,0,0,0,0.3542,0.3566,0.3531,0.3554,0.3514,0.3514,0.3482,0.3481,0.3476,0.3453,0.3481,0.3482,0.3517,0.3531,0.3547,0.3566,0.3575,0,0,0.3583,0.3571,0.3583,0.3551,0.3563,0.3517,0.3534,0.3511,0.3492,0.3487,0.3487,0.352,0.3533,0.3549,0.3624,0.3632,0,0,0,0.3602,0.3611,0.361,0.3606,0.3588,0.3574,0.3546,0.3537,0.3532,0.3493,0.353,0.3537,0.3545,0.3553,0.356,0.3565,0.3487,0.3487,0.3487,0.3688,0.3662,0.3679,0.365,0.3646,0.3616,0.3611,0.3593,0.3569,0.3578,0.3576,0.3625,0.3634,0.3639,0.3645,0.3584,0.3584,0.3584,0.3584,0.3745,0.3752,0.3719,0.3723,0.3695,0.3698,0.367,0.3652,0.365,0.3624,0.363,0.3603,0.3649,0.3652,0.3587,0.3586,0.3586,0.3586,0.3586,0.3798,0.3797,0.3785,0.3776,0.3772,0.374,0.374,0.3715,0.3691,0.3697,0.3692,0.3691,0.3686,0.3696,0.3697,0.3697,0.3697,0.3697,0.3697,0.3856,0.3842,0.3846,0.3829,0.3822,0.381,0.378,0.3772,0.3758,0.3739,0.3739,0.3712,0.3658,0.3645,0.37,0.3699,0.3699,0.3699,0.3698,0.3922,0.3903,0.3908,0.3902,0.3879,0.3875,0.3843,0.383,0.382,0.382,0.3793,0.3757,0.3743,0.3738,0.3726,0.3799,0.3799,0.3799,0.3799,0.3966,0.3957,0.3955,0.3946,0.3935,0.3906,0.3911,0.3887,0.386,0.3852,0.3837,0.382,0.3816,0.3805,0.3798,0.3787,0.3873,0.3873,0.3873,0.4004,0.3993,0.4002,0.3976,0.3956,0.3939,0.3943,0.3933,0.3898,0.3875,0.3844,0.3841,0.3813,0.3806,0.3783,0.3773,0.3752,0,0]},{"header":{"parameterUnit":"m.s-1","parameterCategory":1,"la1":30.2992,"la2":30.254,"lo1":-89.0895,"lo2":-89.0443,"dy":0.0025,"dx":0.0025,"nx":19,"ny":19,"refTime":"2026-04-28T09:00:00:Z","depth":0,"parameterNumber":3,"parameterNumberName":"V-component_of_WINDS"},"data":[0,0,0,5.6638,5.6641,5.6791,5.6792,5.6987,5.6989,0,0,0,0,0,0,0,0,0,0,0,5.66,5.6602,5.6638,5.6642,5.6791,5.6792,5.6987,5.6989,0,0,0,0,0,0,0,0,0,0,0,5.6599,5.6601,5.6603,5.6642,5.6791,5.6792,5.6986,5.6871,0,0,0,0,0,0,0,0,0,0,5.6724,5.6697,5.6601,5.6603,5.6643,5.6791,5.6792,5.6865,5.6878,5.6922,0,5.6967,0,5.6981,5.7002,5.7003,0,0,0,5.6636,5.6686,5.6721,5.6603,5.6645,5.6791,5.6722,5.6872,5.6887,5.6939,5.6969,5.6976,5.6984,5.7004,5.7005,5.7288,5.7289,0,0,5.6627,5.6629,5.6711,5.6731,5.6713,5.6717,5.6727,5.6881,5.6912,5.697,5.6981,5.6988,5.7005,5.7007,5.7286,5.7288,0,0,0,5.6608,5.6624,5.6655,5.6723,5.675,5.6722,5.6733,5.6905,5.6916,5.6983,5.699,5.7006,5.7009,5.7285,5.7287,5.737,0,0,0,5.6602,5.6612,5.6652,5.6654,5.6748,5.6831,5.6754,5.6905,5.6922,5.6989,5.7006,5.7011,5.7283,5.7286,5.7364,5.7409,0,0,0,5.6588,5.661,5.6635,5.6654,5.6719,5.6828,5.6847,5.6909,5.6927,5.7003,5.7011,5.7282,5.7285,5.7359,5.74,5.7485,0,0,0,5.6572,5.6704,5.6636,5.6786,5.6718,5.688,5.6846,5.6965,5.704,5.7007,5.7283,5.7287,5.7357,5.7394,5.7479,5.7557,5.759,0,0,5.674,5.6724,5.6813,5.6756,5.6931,5.6856,5.7042,5.7107,5.711,5.7227,5.7234,5.7366,5.7399,5.7483,5.7772,5.7798,0,0,0,5.6866,5.693,5.6976,5.705,5.7105,5.7155,5.7193,5.7216,5.7317,5.7172,5.7419,5.7439,5.7488,5.7525,5.7547,5.7589,5.7304,5.7304,5.7303,5.7106,5.7106,5.7252,5.7271,5.7342,5.738,5.7437,5.7475,5.7451,5.751,5.7545,5.7721,5.7764,5.7781,5.7825,5.7586,5.7586,5.7586,5.7587,5.7352,5.7442,5.741,5.7541,5.7539,5.7647,5.7687,5.7667,5.7765,5.7694,5.7737,5.766,5.781,5.7848,5.7593,5.7592,5.7591,5.759,5.759,5.7509,5.7552,5.7582,5.7689,5.7771,5.7783,5.788,5.7874,5.7868,5.7911,5.7947,5.7946,5.7943,5.7929,5.7929,5.793,5.793,5.7931,5.7931,5.766,5.7691,5.7776,5.7847,5.7894,5.7954,5.7994,5.8038,5.8085,5.8073,5.8073,5.8043,5.7825,5.7771,5.7941,5.7939,5.7938,5.7937,5.7936,5.791,5.7853,5.7984,5.8032,5.8114,5.8196,5.8187,5.8279,5.8314,5.8362,5.8323,5.8163,5.8146,5.8128,5.8083,5.8323,5.8323,5.8323,5.8323,5.8043,5.8035,5.8168,5.8244,5.8318,5.8324,5.8468,5.85,5.8521,5.8543,5.8507,5.8446,5.8428,5.8422,5.8398,5.8355,5.866,5.866,5.866,5.8197,5.8196,5.8323,5.8348,5.8412,5.8466,5.8602,5.8687,5.87,5.8674,5.856,5.8545,5.8447,5.8416,5.8387,5.835,5.8272,0,0]}]]